Tracking 17925 objects as of 22-January-2017
HD Live streaming from Space Station
objects crossing your sky now

CRRES DEB (CANISTER)

Track CRRES DEB (CANISTER) now!


NORAD ID: 21590
Int'l Code: 1990-065F
Perigee: 328.3 km
Apogee: 31,269.6 km
Inclination: 20.1 °
Period: 547.5 minutes
Semi major axis: 22169 km
RCS: 0.1267 m2 (medium)
Launch date: July 25, 1990
Source: United States (US)
Launch site: AIR FORCE EASTERN TEST RANGE (AFETR)

Note: This is SATELLITE DEBRIS
Your satellite tracking list
Your tracking list is empty





NASA's NSSDC Master Catalog

Two Line Element Set (TLE):
1 21590U 90065F   17021.54942595 -.00000084  00000-0  19068-3 0  9991
2 21590  20.1329 115.9133 6978190 318.3097   5.8008  2.63087942229612
Source of the keplerian elements: AFSPC